OneWeb SL0192

operational
NORAD ID: 48222 Int'l Des: 2021-031 Owner: ONEWEBN Country: UK Constellation: oneweb
LEOCIRCULARPOLARONEWEB_TYPE

About OneWeb SL0192

Description loading...

Live Position

Loading 3D Globe...

Upcoming Passes

Altitude History

Altitude vs Time

uPlot chart will show altitude changes over time

Two-Line Element Set

1 48222U 21031N 25257.54538879 .00000227 00000-0 57916-3 0 9997
2 48222 87.9082 344.6078 0001777 102.7092 257.4236 13.14503827211961
Epoch: Sep 14, 2025 • Age: 20 hours

Current Status

Altitude 1213.8 km
Velocity 7.25 km/s
Sub-Earth Point -19.25°S, 147.18°W
Launch Date Apr 25, 2021
Age 4.3 years
Type internet

Technical Details

Classification Payload
Mass 148.00 kg
Dry Mass 140.00 kg
Total Mass 148.00 kg
Length 1.30 m
Diameter 1.00 m
Span 5.00 m
Shape Trapezoid+2 pan
Manufacturer ONEWUS
Bus Type ARROW
Phase Status In Orbit
Owner/State ONEWEBN/UK

Large Constellations

Loading constellations...